Simultaneous Nadir Overpasses (SNOs) Predictions

Prediction of SNOs between AQUA and NOAA-19 Satellite Orbit:

Table of predicted SNOs for the next 14.0 days since TLE Epoch: 1/17/2020
Index Date (AQUA) Time (AQUA) Lat,Lon (AQUA) SZA (AQUA ) Date (NOAA-19) Time (NOAA-19) Lat,Lon (NOAA-19) SZA (NOAA-19 ) Distance(km) Time Diff (sec)
1 01/19/2020 17:05:45 80.02,-107.33 101.90 01/19/2020 17:05:25 80.02,-107.50 101.92 3.25 20
2 01/19/2020 17:55:12 -80.05, 60.07 78.07 01/19/2020 17:56:21 -80.05, 60.10 78.10 0.87 69
3 01/21/2020 22:39:30 -80.04, -10.91 78.55 01/21/2020 22:38:43 -80.02, -10.85 78.56 3.10 47
4 01/21/2020 23:28:57 80.05, 156.68 101.46 01/21/2020 23:29:45 80.04, 156.73 101.43 1.27 48
5 01/24/2020 04:13:14 80.01, 85.94 100.90 01/24/2020 04:12:06 80.02, 85.91 100.94 1.21 68
6 01/24/2020 05:02:41 -80.03,-106.59 79.08 01/24/2020 05:03:03 -80.04,-106.48 79.08 2.66 22
7 01/26/2020 10:36:26 80.04, -10.08 100.41 01/26/2020 10:36:26 80.03, -9.90 100.39 3.59 0
8 01/28/2020 16:10:10 -80.01, 86.68 80.19 01/28/2020 16:09:46 -80.01, 86.58 80.18 1.89 24
9 01/28/2020 16:59:37 80.03,-105.84 99.83 01/28/2020 17:00:46 80.04,-105.73 99.81 2.42 69
10 01/30/2020 21:43:54 80.00,-176.63 99.20 01/30/2020 21:43:07 80.01,-176.61 99.23 1.85 47




NCC Satellite Simultaneous Nadir Overpasses (SNOs) Prediction Service
